Tracking 30918 objects as of 2-Jul-2025
HD Live streaming from Space Station
objects crossing your sky now

ASTROCAST-01

Track ASTROCAST-01 now!
10-day predictions
ASTROCAST-01 is classified as:


NORAD ID: 43798
Int'l Code: 2018-099AS
Perigee: 479.6 km
Apogee: 491.0 km
Inclination: 97.5 °
Period: 94.2 minutes
Semi major axis: 6856 km
RCS: Unknown
Launch date: December 3, 2018
Source: (SWTZ)
Launch site: AIR FORCE WESTERN TEST RANGE (AFWTR)

Uplink (MHz):
Downlink (MHz): 437.150/2403.000
Beacon (MHz):
Mode: 1200bps FSK
Call sign: HB9GSF
Status: Active

Your satellite tracking list
NOAA 16 DEB
Track 1 satellite(s)




NASA's NSSDC Master Catalog

Two Line Element Set (TLE):
1 43798U 18099AS  25182.70891331  .00011060  00000-0  39246-3 0  9993
2 43798  97.4828 250.3551 0008313  47.2400 312.9538 15.29200559360552
Source of the keplerian elements: AMSAT